Notices

What's New in latest Release from April 7th, 2021:

- Updated Glossary, including Speed of Maximum Gust, and Total Hourly Precipitation

- Updated national and regional climate services offices contacts and prices information

- Addition of station inventory lists for 1981-2010, 1971-2000, and 1961-1990 Normals.

If you haven't already, please take our survey and provide feedback about our website: https://eccc.sondage-survey.ca/f/LanguageSelection.aspx?s=442ca660-fcf1-47c0-95a9-59707d6fd709

Hourly Data Report for July 23, 2018

OTTAWA INTL A
ONTARIO
Current Station Operator: NAVCAN

45°19'00.000" N
75°40'00.000" W
114.90 m
6106001
71628
YOW

Download Data

Hourly Data (July 2018)
Hourly Data Report for July 23, 2018
TIME
LST
Temp Definition
°C
Dew Point Definition
°C
Rel Hum Definition
%
Precip. Amount Definition
mm

Wind Dir Definition
10's deg

Wind Spd Definition
km/h
Visibility Definition
km
Stn Press Definition
kPa
Hmdx Definition


Wind Chill Definition


Weather Definition


00:00 20.7 19.7 93   7 18 24.1 100.31 28   LegendNANA
01:00 20.5 19.6 94   7 14 24.1 100.28 28   Mainly Clear
02:00 20.5 19.5 94   7 14 24.1 100.31 28   LegendNANA
03:00 20.0 19.2 95   6 17 24.1 100.30 27   LegendNANA
04:00 19.8 19.1 95   7 17 24.1 100.34     Mostly Cloudy
05:00 19.7 18.9 95   7 16 24.1 100.36     LegendNANA
06:00 20.3 19.3 94   8 18 24.1 100.43 27   LegendNANA
07:00 21.6 19.9 90   8 18 24.1 100.45 29   Mostly Cloudy
08:00 23.2 20.6 85   8 11 24.1 100.47 31   LegendNANA
09:00 26.0 21.4 75   10 12 24.1 100.48 35   LegendNANA
10:00 28.0 21.5 67   12 16 24.1 100.45 37   Mostly Cloudy
11:00 29.0 21.7 64   13 19 24.1 100.43 38   LegendNANA
12:00 30.1 21.8 60   12 24 24.1 100.40 39   LegendNANA
13:00 31.1 21.7 57   11 29 24.1 100.35 40   Mostly Cloudy
14:00 29.8 21.7 61   12 23 24.1 100.31 39   LegendNANA
15:00 28.4 20.6 62   36 2 24.1 100.32 36   LegendNANA
16:00 27.8 21.9 70   6 3 6.4 100.36 37   Thunderstorms,Rain Showers,Fog
17:00 23.1 21.8 92   1 18 12.9 100.39 32   Rain
18:00 23.3 22.3 94   5 13 24.1 100.37 33   LegendNANA
19:00 23.0 22.0 94   3 10 4.8 100.43 32   Rain,Fog
20:00 22.9 22.1 95   2 14 16.1 100.45 32   LegendNANA
21:00 22.1 21.6 97   12 4 12.9 100.54 31   LegendNANA
22:00 22.3 21.5 95   7 4 16.1 100.53 31   Mostly Cloudy
23:00 22.3 21.8 97   9 12 24.1 100.50 31   LegendNANA

Notes on Data Quality.

Legend

  • E = Estimated
  • M = Missing
  • NA = Not Available*
  • [empty] = Indicates an unobserved value
Date modified: